Miscellaneous Hydrologic Data Report
Issued by NWS (Baltimore/Washington) Sterling, VA
1 of 55 available versions  First Miscellaneous Hydrologic Data Report Previous Miscellaneous Hydrologic Data Report  Print this page Close this Window


000
ASUS41 KLWX 042010
RWRLWX

REGIONAL WEATHER ROUNDUP
NATIONAL WEATHER SERVICE BALTIMORE MD/WASHINGTON DC
300 PM EST SUN DEC 04 2016

Note: "FAIR" indicates few or no clouds below 12,000 feet
with no significant weather and/or obstructions to visibility.
 TC=TEMPERATURE CELSIUS

 * =Non NWS site. Station does not report precipitation (e.g. rain,
    snow, etc.), thunder, or fog.

DCZ001-MDZ009-015-VAZ040>042-051-053>054-042100-
WASHINGTON METRO

CITY           SKY/WX    TMP DP  RH WIND       PRES   REMARKS
WASHINGTON NAT CLOUDY    47  30  51 S6        30.22F
DULLES         CLOUDY    45  27  49 CALM      30.21S
ANDREWS AFB    PTSUNNY   46  27  48 S5        30.19F
FT BELVOIR     CLOUDY    46  29  52 SE6       30.21F
QUANTICO       CLOUDY    46  30  53 S8        30.23F
COLLEGE PARK*  CLOUDY    45  28  53 CALM      30.20S
LEESBURG*      PTSUNNY   45  32  61 CALM      30.21S
MANASSAS*      SUNNY     45  30  57 S6        30.21S
GAITHERSBURG*  CLOUDY    43  25  49 CALM      30.24R

$$

MDZ006>007-011-014-042100-
BALTIMORE METRO

CITY           SKY/WX    TMP DP  RH WIND       PRES   REMARKS
BWI AIRPORT    CLOUDY    46  29  51 CALM      30.20F
MD SCIENCE CTR   N/A     47  28  47 MISG      30.21F
MARTIN STATE   CLOUDY    46  32  57 W5        30.23F
ANNAPOLIS      PTSUNNY   47  33  58 E6        30.21F
FORT MEADE*    MOSUNNY   45  28  53 CALM      30.23S

$$

MDZ012-015-019>023-042100-
MARYLAND EASTERN SHORE

CITY           SKY/WX    TMP DP  RH WIND       PRES   REMARKS
OCEAN CITY     MOSUNNY   47  30  51 NW5       30.23R
SALISBURY      CLOUDY    46  30  53 W3        30.22S
BAY BRIDGE AP* PTSUNNY   45  30  57 CALM      30.22S
CAMBRIDGE*     CLOUDY    45  30  57 CALM      30.22F
EASTON*        CLOUDY    46  28  49 CALM      30.25F

$$

MDZ017>025-042100-
SOUTHERN MARYLAND

CITY           SKY/WX    TMP DP  RH WIND       PRES   REMARKS
PATUXENT RIVER CLOUDY    46  27  47 CALM      30.22F
ST INIGOES     CLOUDY    46  33  60 S5        30.22F
LEONARDTOWN*   CLOUDY    45  30  57 CALM      30.22F

$$

MDZ003>005-042100-
NORTH CENTRAL MARYLAND

CITY           SKY/WX    TMP DP  RH WIND       PRES   REMARKS
FREDERICK*     SUNNY     45  30  57 CALM      30.23F
HAGERSTOWN APT MOSUNNY   43  26  51 CALM      30.18F
WESTMINSTER*   CLOUDY    43  28  56 NW3       30.17F

$$

MDZ501>502-042100-
WESTERN MARYLAND

CITY           SKY/WX    TMP DP  RH WIND       PRES   REMARKS
OAKLAND*       CLOUDY    32  27  80 SE14      30.04F WCI  22
CUMBERLAND*    NOT AVBL

$$

VAZ025>031-042100-
SHENANDOAH VALLEY

CITY           SKY/WX    TMP DP  RH WIND       PRES   REMARKS
WINCHESTER*    CLOUDY    39  28  65 SE5       30.18S
FRONT ROYAL*   FAIR      41  28  60 CALM      30.18R
LURAY*         FAIR      41  32  70 CALM      30.17S
NEW MARKET*    FAIR      40  27  58 S6        30.16R
STAUNTON*      CLOUDY    39  28  64 S6        30.17F
WAYNESBORO*    CLOUDY    39  27  62 CALM      30.15S

$$

WVZ021-048>050-054>055-042100-
EASTERN WEST VIRGINIA PANHANDLE

CITY           SKY/WX    TMP DP  RH WIND       PRES   REMARKS
MARTINSBURG    MOSUNNY   43  28  55 CALM      30.18F
PETERSBURG*    CLOUDY    43  30  60 CALM      30.15F

$$

VAZ036>039-050-042100-
CENTRAL FOOTHILLS

CITY           SKY/WX    TMP DP  RH WIND       PRES   REMARKS
CHARLOTTESVILL PTSUNNY   45  28  51 S5        30.18F
CULPEPER*      CLOUDY    45  30  56 CALM      30.23R
ORANGE*          N/A     45  30  57 S3        30.23R
GORDONSVILLE*  FAIR      43  29  57 S6        30.20R
WARRENTON*     FAIR      46  25  44 CALM      30.21R

$$

VAZ055>057-042100-
NORTH AND CENTRAL PIEDMONT

CITY           SKY/WX    TMP DP  RH WIND       PRES   REMARKS
FREDERICKSBRG* CLOUDY    46  32  58 S3        30.21S
STAFFORD*      CLOUDY    44  29  55 CALM      30.25S

$$

NCZ024-NYZ072-PAZ021-071-VAZ022-071-042100-
OTHER REGIONAL OBSERVATIONS

CITY           SKY/WX    TMP DP  RH WIND       PRES   REMARKS
NEW YORK CITY  SUNNY     45  20  36 VRB6      30.21R
PHILADELPHIA   PTSUNNY   47  24  40 NW7       30.20F
PITTSBURGH     CLOUDY    42  28  57 E13       30.07F
ROANOKE        LGT RAIN  39  32  76 SE8       30.19F
RICHMOND       CLOUDY    44  28  53 CALM      30.23F
RALEIGH        CLOUDY    45  35  68 S3        30.22F

$$

ANZ530>537-042100-
MARINE OBSERVATIONS

STATION/POSITION TIME  TEMP    WIND        PRES
                       AIR SEA DIR/SP/G
                 (UTC) (F)     (DEG/KT/KT) (MB)
THOMAS PT LIGHT  2000   44 49  150/  5/  6   N/A
BALT KEY BRIDGE  1942   45     240/  3/  5 1022.9F
COVE POINT       1942   44      90/  3/  5 1023.9F
LEWISETTA        1942   44 48  120/  1/  2 1023.5F
SOLOMONS ISLAND  1942   45 51   70/  2/  2   N/A
PINEY POINT      1936          260/  1/  2   N/A

$$


Close this window


The National Weather Service prepares its forecasts and other services in collaboration with agencies like the US Geological Survey, US Bureau of Reclamation, US Army Corps of Engineers, Natural Resource Conservation Service, National Park Service, ALERT Users Group, Bureau of Indian Affairs, and many state and local emergency managers across the country. For details, please click here.

National Weather Service
(Baltimore/Washington) Sterling Weather Forecast Office
43858 Weather Service Rd.
Sterling, VA 20166
(703) 996-2200
Page last modified: 4-Dec-2016 8:10 PM
Disclaimer
Credits
Glossary
Privacy Policy
About Us
Career Opportunities